STARLINK-5696 (55484 NORAD) Tracking and Keplerian Element Data

This shows tracking and keplerian element data for the satellite.

Feedback or suggestion? Click here.




ElementValue
Catalog55484
NameSTARLINK-5696
Epoch Orbit130
Epoch Day84.91667824
Epoch Year2023
RAAN86.3212
Inclination43.0001
Eccentricity0.0001317
Argument of Perigee262.103
Mean Anonmoly190.222
Mean Motion15.04486487
Decay Rate0.00047691
L11 55484U 23015AM 23084.91667824 .00047691 00000+0 33434-2 0 9992
L22 55484 43.0001 86.3212 0001317 262.1030 190.2220 15.04486487 1301



Live tracking and technical data element details for STARLINK-5696 (NORAD 55484). STARLINK-5696 can be tracked NOW for your location showing map with azimuth and elevation plus other details from your city location.







IsCatalogInMostPopularTable: catalog: 55484, numindb: -1

Insert: records affected: 1


GetName: 55484 STARLINK-5696

Hit Count: inserted at: Tue, 28 Mar 2023 02:41:13 GMT